indice_tiempo,nivel_general_indice,alimentos_bebidas,alimentos_consumir_hogar,productos_panificacion_cereales_pastas,productos_panificacion,pan_fresco,pan_envasado,facturas,galletitas_dulces,otras_galletas_galletitas,productos_pasteleria,harina_arroz_otros_cereales,harina_trigo,otras_harinas,arroz,otros_cereales,fideos_pastas_masas_crudas,fideos_secos,pastas_frescas,tapas_masa,semipreparados_base_pastas,carnes,carne_vacuna,cortes_delanteros_carne_vacuna_fresca,cortes_traseros_carne_vacuna_fresca,menudencias_achuras_frescas_vacunas,semipreparados_base_carne_vacuna,otras_carnes_rojas_frescas,carne_ave,aves_frescas_congeladas,semipreparados_base_ave,pescados_mariscos_frescos_congelados,merluza_fresca_congelada,otros_pescados_mariscos_frescos_congelados,fiambres_embutidos_conservas,embutidos_frescos,fiambres_conservas,conservas_pescado,aceites_grasas,aceites,aceite_puro,aceite_mezcla,margarinas_grasas,productos_lacteos_huevos,leche,leche_fluida,leche_polvo,quesos,quesos_blandos_untables,quesos_semiduros,quesos_duros,otros_productos_lacteos,manteca_crema,yogur_postres_lacteos,helados,huevos,frutas,frutas_frescas,manzana,frutas_citricas,otras_frutas,frutas_secas_deshidratadas_conserva,verduras,verduras_frescas_congeladas,papa_otras_raices_feculentas,otras_verduras_frescas_congeladas,verduras_secas_conserva,tomate_conserva
1989-06-01,0.4038,0.5288,0.6119,0.506,0.4751,0.4881,0.4652,0.3848,0.6429,0.5755,0.3385,0.7279,1.0021,0.6847,0.6369,0.5804,0.5084,0.7739,0.3574,0.5284,0.544,0.7097,0.7314,0.7759,0.7054,0.8649,0.4134,0.5414,0.8021,0.8088,0.7376,0.5446,0.5581,0.5052,0.6187,0.5894,0.5996,0.9924,1.0474,1.0871,1.2618,1.0237,0.8137,0.6413,0.5859,0.565,0.8426,0.6012,0.6165,0.5928,0.562,0.5787,0.6566,0.5584,0.4828,1.0396,0.4031,0.3853,0.3531,0.3105,0.5012,0.546,0.4832,0.4289,0.5708,0.34,1.0128,1.0008
1989-07-01,1.1977,1.5284,1.7284,1.6086,1.5692,1.6953,1.3334,1.2658,2.1619,1.9058,0.9593,2.3033,3.5446,1.823,1.9855,1.7498,1.4402,2.2438,1.0724,1.1929,1.5542,1.8165,1.8128,1.9051,1.7305,2.6745,1.1671,1.6038,2.1271,2.1451,1.956,1.6296,1.6625,1.5461,1.6893,1.6493,1.6206,2.6365,2.461,2.5112,3.0081,2.3464,2.2173,1.8739,1.5317,1.4468,2.5741,1.7677,1.7565,1.8678,1.6623,1.7923,1.887,1.7235,1.884,3.3017,1.194,1.1578,1.1197,0.9721,1.4007,1.4833,1.6345,1.5241,2.0377,1.2027,2.7758,2.7913
1989-08-01,1.6511,1.9054,2.0581,1.8129,1.7407,1.7487,1.7849,1.3975,2.4894,2.0194,1.3262,2.5776,3.8555,2.1252,2.2335,2.0525,1.7158,2.5602,1.2871,1.5126,2.0298,1.99,1.9419,2.0317,1.8682,2.7131,1.2838,1.8364,2.4972,2.5183,2.2964,1.8776,1.8787,1.9494,1.8903,1.8643,1.6901,4.3491,2.6269,2.6417,3.1165,2.4778,2.6401,1.9914,1.7635,1.6691,2.9231,1.8458,1.8295,1.8791,1.8129,2.0605,2.1026,1.8952,2.77,2.9154,1.9148,1.8736,1.6144,1.6978,2.3202,2.2421,2.6192,2.5338,3.1184,2.1588,3.6371,3.6835
1989-09-01,1.8056,2.0828,2.2586,1.7958,1.7209,1.6714,1.764,1.4128,2.4427,1.9876,1.4712,2.5093,3.4966,2.1394,2.2313,2.1059,1.7285,2.5292,1.3316,1.5042,2.0197,2.2177,2.1046,2.2042,2.0413,2.7005,1.298,2.3093,3.2264,3.2537,2.9669,1.8814,1.8392,2.15,2.1049,2.0192,1.9401,4.5155,2.5949,2.5963,3.0981,2.4282,2.7017,1.9426,1.7452,1.6492,2.9231,1.8066,1.7991,1.8321,1.7619,2.0483,2.0732,1.847,2.9845,2.6822,2.3674,2.3397,1.897,2.2111,2.9108,2.5851,3.4425,3.4642,3.6497,3.3142,3.5955,3.6911
1989-10-01,1.9066,2.1768,2.3574,1.8032,1.7246,1.6392,1.7639,1.4192,2.4128,1.9858,1.605,2.4805,3.2291,2.1523,2.2626,2.1269,1.7623,2.5289,1.4045,1.4951,1.9833,2.297,2.0911,2.1821,2.0288,2.7968,1.3213,2.5294,3.6039,3.6343,3.314,1.8964,1.819,2.3259,2.3934,2.1762,2.3172,4.5885,2.5401,2.5413,3.1168,2.3602,2.646,1.961,1.7481,1.6525,2.9219,1.8334,1.8258,1.8784,1.7701,2.0843,2.0914,1.8812,3.0726,2.6848,2.6937,2.6863,2.106,2.6174,3.3222,2.7468,3.7314,3.7948,5.1657,2.9402,3.5437,3.648
1989-11-01,2.0309,2.3179,2.5038,1.8849,1.8048,1.7023,1.8084,1.5072,2.4242,1.9998,1.8469,2.5775,3.4616,2.174,2.335,2.1674,1.8424,2.572,1.5299,1.5011,2.0269,2.4533,2.2028,2.2906,2.1501,2.8919,1.3689,2.5953,3.9895,4.0232,3.6686,1.9358,1.8517,2.397,2.6389,2.253,2.6626,4.7429,2.6665,2.6827,3.1897,2.5113,2.672,2.0001,1.7606,1.6618,2.9738,1.9212,1.9109,2.0037,1.8269,2.1109,2.0863,1.8929,3.2528,2.6848,3.1266,3.1448,2.3971,3.1796,3.8225,2.9708,3.8807,3.9621,5.0112,3.2958,3.5484,3.6542
1989-12-01,2.8448,3.3324,3.6647,2.7321,2.6877,2.7578,2.3427,2.349,3.1846,2.8107,2.5855,3.4402,5.0017,2.7056,3.0529,2.7157,2.5748,3.1619,2.34,2.2015,2.781,4.3259,3.9691,4.1141,3.955,4.2072,2.2409,4.1339,7.1013,7.1613,6.5302,2.8922,2.8757,3.085,4.4613,3.4476,4.8527,6.17,3.8406,3.9432,4.2906,3.7694,3.2882,2.7829,2.2393,2.0958,4.0022,2.7437,2.6803,3.0952,2.4993,2.6489,2.5941,2.3672,4.1811,4.6904,3.9316,3.9393,3.0694,3.7756,4.9648,3.8583,4.4186,4.4825,5.6969,3.7124,4.2955,4.4708
1990-01-01,5.098,6.1545,6.6875,6.2411,6.254,6.8876,6.0671,5.3075,7.1047,6.616,4.5483,7.1623,11.022,6.1704,6.0493,6.1646,5.8226,7.3629,4.8719,5.5416,7.4168,6.6558,6.199,6.3915,6.1314,6.6026,4.5131,5.7113,8.6423,8.7153,7.9472,6.1245,6.2087,5.9913,7.5352,5.7271,8.1168,12.076,8.0501,8.204,9.4748,7.7349,7.3245,5.8521,5.2028,4.9561,8.2311,5.8656,5.7117,6.5427,5.4546,5.826,5.8434,5.2072,8.8554,7.7204,6.7448,6.7505,6.5008,6.7315,6.9414,6.6795,7.9998,7.9803,10.5213,6.3853,8.9734,9.4586
1990-02-01,8.2368,9.7248,10.7857,10.3621,10.242,11.4151,8.7094,8.6857,11.9815,11.58,6.8485,13.9033,18.5614,10.5074,12.921,10.5477,9.258,13.0542,7.3855,8.4158,10.0276,10.8547,10.6617,11.0914,10.4725,11.9907,6.9637,8.6054,13.2054,13.317,12.1434,10.0244,10.2567,9.3764,10.5348,9.3233,10.5464,17.6692,15.1601,15.6987,16.4984,15.1217,12.0343,9.3509,8.7438,8.3775,13.2395,8.2609,8.5675,8.3208,7.3409,9.6784,10.4498,9.0697,10.7544,13.557,9.3214,9.2288,9.9732,9.1132,8.494,10.0448,13.2756,13.2591,13.7685,12.8036,14.7517,15.5116
1990-03-01,16.1052,18.6657,20.5867,20.519,18.8615,19.2379,17.0806,15.3128,25.1119,24.7985,13.0436,35.7213,41.5525,25.5853,35.3573,23.4053,19.256,28.8051,14.8475,16.8174,19.7042,20.9316,21.1288,21.9007,20.4227,29.5866,15.4733,18.1755,20.6532,20.8278,18.9922,19.7397,20.216,18.3774,20.7531,19.9526,19.5,39.6086,28.6839,28.9127,30.9798,27.7333,28.3594,19.9012,18.6144,18.0279,25.8087,18.925,19.9647,19.1485,15.9745,19.8762,22.6919,18.3168,20.6629,26.4769,15.5726,14.6467,10.9187,17.0834,15.3724,23.0154,20.7767,19.654,21.072,18.587,32.7977,33.5274
1990-04-01,17.9367,18.9875,20.0425,18.9489,17.4722,16.8006,15.8532,15.1137,23.5167,22.9728,14.0944,30.6952,33.1279,25.1344,30.3498,24.5054,18.578,26.1217,15.0813,16.2666,19.8027,19.5993,18.7044,19.3962,17.9873,26.8717,14.3283,20.1571,24.061,24.2644,22.126,19.0619,19.0435,19.9219,20.3969,20.149,18.8865,38.6384,23.4793,23.1424,27.6787,21.632,26.9208,19.9906,19.0282,18.4225,26.4587,18.5818,19.4605,18.6399,16.1575,20.6804,23.2866,18.9699,22.739,25.4708,18.9596,18.275,13.8018,20.505,19.9548,24.4408,21.0349,20.1733,21.4548,19.181,30.7693,31.7688
1990-05-01,20.3775,21.6723,22.7883,20.803,19.6114,19.683,16.9298,17.2524,23.7258,23.3686,17.3062,30.9671,38.7155,25.2542,29.1081,24.4809,20.2225,27.0436,17.1128,18.0267,21.0503,21.5228,19.831,20.7068,19.0526,27.4096,14.1707,24.5788,29.7634,30.0151,27.3698,19.0784,18.7959,21.1397,23.5673,22.6841,22.6179,38.9198,23.587,23.232,28.3224,21.6103,27.1613,23.9084,22.3479,21.7826,29.2786,24.029,25.5766,23.4362,20.5935,23.7728,27.1198,21.859,25.0136,28.3999,21.1933,20.6022,17.0471,20.5351,24.0281,25.9132,27.1365,26.9953,24.0252,28.4372,31.1034,32.6722
1990-06-01,23.2095,25.0873,26.2148,22.7367,21.6503,21.8423,18.6038,19.107,24.9919,24.6915,20.4499,31.5918,41.0853,25.7672,29.2388,24.6033,22.3838,28.6215,19.8334,19.6671,22.3343,25.462,22.8245,23.8708,21.9652,30.5538,15.942,30.2244,35.5375,35.838,32.6796,24.7534,24.4347,27.2109,29.5958,27.5133,29.6203,40.5466,24.1325,23.7192,28.583,22.129,28.1443,26.3199,23.5651,22.9993,30.5017,27.7196,28.4204,28.7751,24.5695,25.222,28.2219,23.1577,28.0568,32.4327,22.3387,21.6572,19.6634,19.6299,25.7959,27.7863,35.994,36.7201,28.8153,40.9661,33.1694,35.2895
1990-07-01,25.722,27.9022,28.944,24.0652,22.8515,22.2736,21.4078,20.215,26.0705,25.8943,23.2128,32.1437,40.6365,26.4407,30.0428,24.7263,24.4302,30.0387,22.2515,21.5004,24.4561,27.832,24.9497,25.9297,24.1798,31.5603,18.6203,31.3119,41.2591,41.6079,37.941,27.7755,27.098,31.9873,30.673,29.3921,30.204,42.0515,24.5883,23.9753,29.319,22.2839,30.0332,29.115,26.1073,25.4926,33.6433,30.8988,30.6956,33.2469,28.5081,28.3442,31.4441,25.9862,32.3874,34.2165,25.6642,24.992,23.8612,20.8726,30.6786,31.0273,42.1011,43.2292,38.0298,45.8001,36.3287,39.1445
1990-08-01,29.6672,32.7699,34.3373,26.6308,25.5486,24.7545,23.5679,23.1866,28.1308,28.2715,27.2589,33.6587,43.7312,28.0678,31.0318,25.7895,27.0354,32.115,25.3128,23.5942,26.7305,34.9595,32.6491,33.8841,31.8721,37.8972,24.1878,35.3106,51.2438,51.677,47.1227,32.5557,32.1654,35.6563,34.4153,33.1736,33.9097,45.5645,26.484,25.8484,30.8302,24.178,32.1745,30.7733,27.556,26.8024,36.7974,33.0153,32.2578,35.6581,31.555,30.5513,33.579,27.3437,39.0807,34.0796,30.7335,30.1494,30.5278,24.5695,35.9611,35.3705,56.0784,58.464,62.3649,55.4776,40.573,44.9931
1990-09-01,34.3182,37.395,38.9295,31.1038,30.4995,29.5562,26.8943,27.5689,34.0164,34.7048,32.1897,36.5294,49.886,31.5686,32.7203,28.2137,30.7185,36.106,28.7832,27.0347,31.248,39.0246,35.5287,36.9034,34.5802,41.0375,27.3322,38.3241,63.3373,63.8728,58.2437,37.0097,36.3469,41.5309,38.1896,36.5581,37.757,50.7337,32.1258,31.7655,36.7703,29.9324,36.1234,34.4119,32.0144,31.1147,43.0489,36.0088,35.1085,38.3515,35.0905,35.713,39.0064,32.2194,44.974,34.2841,36.8848,35.9986,39.4468,30.0806,39.022,43.9469,62.1407,64.3563,65.3701,63.0082,48.7475,55.3113
1990-10-01,36.9574,39.6192,40.468,32.2686,31.7035,30.38,28.3919,28.6993,35.2313,36.0374,34.3054,37.8057,47.4721,32.7589,35.0444,29.6244,31.7174,37.3331,29.7438,27.6457,32.4666,38.274,35.0865,36.2678,34.2691,40.6244,27.7968,38.23,58.5236,59.0184,53.8171,35.9773,35.4746,39.7286,38.8715,36.7727,38.4129,54.9168,31.7671,31.0586,37.2841,29.0045,38.2107,37.4186,36.0928,35.2015,47.0199,37.5135,36.7627,39.5719,36.4938,39.8778,44.0689,35.9289,49.2114,36.3069,43.5331,42.6301,47.7426,36.4436,44.1987,50.7129,65.0776,67.147,85.1993,55.6936,53.2724,61.3711
1990-11-01,39.2416,41.4669,41.573,33.5947,32.6194,30.7523,30.9313,29.3019,36.3809,37.0002,36.0541,41.2138,51.1816,34.2251,38.7194,31.4019,33.431,38.4915,31.4724,30.0015,34.8042,38.578,35.2402,36.2176,34.5764,40.8069,28.7419,39.4929,57.5873,58.0741,52.9561,35.9771,35.3327,40.3724,40.6656,37.4477,40.594,59.4998,31.9669,31.0188,37.9325,28.8304,40.1149,38.586,37.9253,37.1019,48.016,37.8812,36.8339,39.7371,37.7135,41.997,45.8851,38.0756,51.8947,36.0164,52.6035,51.9893,62.0998,43.0608,51.6021,57.423,61.2475,62.3886,90.0028,45.3377,57.2768,66.7902
1990-12-01,41.0767,43.4544,43.2154,34.9397,33.5081,31.0945,32.9528,30.2982,37.7187,38.0941,37.4063,46.6329,53.38,35.6963,45.8623,32.3125,34.4702,39.1528,32.7348,30.7803,36.1964,40.9117,35.1481,35.9305,34.6409,41.1891,29.0006,44.2618,69.7958,70.3859,64.1828,35.7733,35.1207,40.1979,47.4915,38.3963,50.9371,62.8276,32.5598,31.5145,39.2694,29.1476,41.4216,38.6567,38.7002,37.9261,48.185,37.3665,36.2851,39.0264,37.4709,41.9236,42.4538,39.213,53.8217,36.0884,64.1342,64.4273,71.6968,53.7382,68.8397,61.5868,56.6726,57.3425,75.1959,46.1207,56.4161,65.4236
1991-01-01,44.239,46.0607,45.4984,36.3849,34.753,31.8758,34.608,31.6919,39.2146,39.692,39.2074,49.9373,54.1564,37.532,50.1552,33.7666,35.7522,39.8505,34.4239,31.5711,37.7529,43.8191,37.3967,38.3328,36.9513,41.1756,29.8996,50.0072,71.1219,71.7232,65.4022,39.4062,38.7381,44.0491,53.7616,39.8166,60.054,66.8299,35.7074,34.9211,43.084,32.383,42.879,38.6212,38.8335,37.9086,50.1716,37.4282,36.3049,39.3329,37.396,41.6254,40.8076,39.2016,55.3496,35.8358,75.7487,77.3192,107.8616,62.1132,63.2886,62.8419,53.7214,54.0246,67.157,45.6324,56.4161,64.6054
1991-02-01,56.1793,57.4474,56.8573,50.3666,48.4071,44.6965,48.8126,43.8774,59.7107,57.6008,48.6324,70.4324,75.2073,59.0152,69.7098,47.4421,48.0248,58.0959,42.9926,43.8936,54.0998,57.5472,51.7544,53.3234,51.0631,50.3932,42.6966,61.8919,73.1133,73.7314,67.2335,50.9072,50.9406,52.828,73.5334,53.927,82.0225,96.5776,56.8769,57.2118,68.6597,53.4319,57.0731,48.8696,48.6287,47.3147,64.7427,46.6309,46.1858,47.6462,45.7123,52.2422,47.4503,51.6927,65.9029,49.6684,71.4203,70.9129,89.5282,64.2481,58.9954,75.3243,61.3242,60.3911,77.4942,49.5774,75.7261,84.5486
1991-03-01,62.3828,61.875,60.0293,54.787,52.5983,48.4063,51.3406,47.6289,64.9389,63.7356,53.2112,75.8699,76.1171,68.4624,75.3563,54.3686,52.7273,64.6518,47.0837,48.2356,56.6966,61.1348,54.995,56.7495,54.1968,55.0747,44.0629,62.6321,79.1817,79.8511,72.8139,61.8911,62.8607,60.0022,74.7995,58.4861,80.3277,111.5402,58.9601,58.8853,70.1928,55.0883,62.1473,55.4935,52.9405,51.635,68.9449,56.4731,57.2813,57.4747,52.5338,58.7641,54.614,58.3503,70.0599,53.8406,67.8976,66.2628,61.8677,69.9977,65.4871,80.9254,60.312,58.7818,68.1097,52.5835,79.8985,87.9331
1991-04-01,65.8204,65.4399,62.5808,56.7261,54.4396,49.1931,49.0954,50.1056,69.3352,67.2666,56.8156,76.8305,77.3056,69.9553,76.0517,58.3375,55.3786,67.2714,50.1431,49.9721,58.2841,62.1704,55.2226,57.1239,54.2986,56.9924,42.8732,68.6703,84.091,84.8019,77.3283,61.0246,61.7921,60.0196,76.7682,61.0292,81.8235,115.1629,58.361,57.9532,70.5312,53.9314,63.8766,59.4705,53.1308,51.7348,70.249,65.7448,66.8083,68.4625,59.423,60.0807,56.6201,59.4884,70.5859,58.6324,77.0889,76.1849,68.4295,80.6699,77.8089,84.1831,61.7995,60.2647,66.4578,55.9023,81.5758,87.7819
1991-05-01,67.6664,68.27,66.3853,57.5215,54.9602,49.2423,48.2473,51.4334,69.5123,67.7463,58.9793,77.5287,77.7121,69.587,77.0476,59.3876,57.059,69.4103,52.194,50.172,58.5173,66.4953,58.5834,60.9262,57.4868,59.8948,42.9161,82.6982,96.0319,96.8438,88.3089,58.2455,58.5789,59.1012,81.2847,65.4634,86.8457,113.4813,58.4324,58.0509,71.661,53.8235,63.7654,60.8955,53.3177,51.809,71.8208,69.266,70.3256,72.2297,62.6488,60.2022,56.6131,59.6222,70.9564,60.1569,80.8552,80.2525,78.9949,77.3941,83.8876,85.5032,74.6343,74.7405,71.6988,75.6693,81.1673,86.8489
1991-06-01,69.7801,72.2971,71.0702,58.4735,55.5677,49.0454,47.9833,52.8221,71.171,68.4489,61.04,79.4559,75.9196,70.0562,80.3349,60.516,58.6598,70.2627,54.5544,50.826,59.3365,77.9826,72.8068,76.8221,70.7804,70.1787,49.4822,89.589,104.0025,104.8818,95.6386,58.8655,58.286,63.8976,87.16,71.8412,92.6611,115.9577,59.457,59.2754,72.1032,55.1691,63.4217,62.7475,53.5069,51.891,73.3275,72.3869,73.0239,75.3759,66.6352,60.2654,56.564,59.2827,73.352,66.5936,80.2169,79.2148,84.8462,71.2785,81.8591,88.0963,77.3599,77.7234,72.9446,79.6443,81.8874,87.0605
1991-07-01,71.5881,74.919,74.2485,59.2563,56.043,48.9963,48.024,53.8785,70.9434,68.5517,63.5176,81.2778,71.2986,70.9724,84.2017,60.5765,59.9515,70.2516,56.2853,53.5179,59.2772,83.6498,78.402,82.5501,76.038,76.0665,57.6468,97.1955,114.7148,115.6847,105.4894,61.9815,61.142,68.3228,90.2538,76.5265,95.0901,115.8855,61.0526,60.9681,72.3534,57.1001,64.4034,65.9622,53.7573,51.9495,75.9353,74.9852,75.1564,78.9042,69.3564,61.1016,57.2297,59.2408,79.0839,84.5073,81.1811,80.0358,89.1673,71.4069,79.9361,90.215,81.4621,82.2518,74.1993,86.0555,82.6271,87.6864
1991-08-01,72.5194,76.4869,75.9539,60.0976,56.4942,48.8066,48.6566,54.7675,71.1318,68.936,65.5819,83.6034,69.4232,71.2431,88.1612,61.364,61.3684,71.1315,58.0633,54.9463,59.9885,84.8223,78.6638,82.7602,76.2584,77.4398,58.4539,98.6531,119.1887,120.1964,109.6034,61.4984,60.5306,68.4033,93.6984,78.2699,99.6588,116.8397,61.9339,61.8213,72.783,58.0137,65.5229,67.0446,53.7484,51.8543,76.9878,77.083,76.8161,81.877,71.5772,61.5307,57.8968,59.1106,81.7858,87.0425,85.597,84.8375,95.7066,74.4641,84.9708,91.4995,86.4843,87.8452,76.7263,93.3967,83.0947,88.1987
1991-09-01,73.8004,78.872,78.7599,60.8726,57.0629,48.7702,49.5559,55.6438,71.378,69.7152,67.4806,85.3433,66.695,72.7117,91.2177,62.2231,62.3729,72.7675,58.8463,55.8764,60.2884,89.9836,84.6719,88.8639,82.5489,78.5713,62.8964,95.2687,129.7965,130.8938,119.3582,62.4275,60.5911,73.3204,93.8117,80.5741,98.5549,116.8003,62.7362,62.6185,73.3955,58.8258,66.3977,66.5709,54.3501,52.2439,80.1955,76.4283,74.9743,81.8497,73.0261,62.8158,59.418,59.9116,84.9504,80.6014,91.1132,90.814,106.8289,80.2431,85.8861,93.2796,91.3581,93.2362,74.1105,103.4584,83.8779,88.9663
1991-10-01,74.7973,80.3413,80.2728,61.2973,57.3223,48.7764,50.9991,56.1446,71.5987,69.4674,68.1091,86.659,64.6045,73.2649,93.6674,62.5964,62.9316,73.0386,59.5382,56.0669,61.7957,90.8334,86.1222,90.2935,83.9508,79.1389,65.8525,95.7776,127.4601,128.5377,117.2097,61.841,59.4399,75.2777,94.6961,81.7038,99.4068,116.2836,64.369,64.4781,74.587,60.7671,66.4992,66.3177,55.8354,53.7942,80.8813,75.738,74.0176,81.1955,72.9174,64.6104,61.9515,61.2627,87.1828,72.7025,95.0851,95.175,112.602,86.005,87.1094,94.0953,98.0522,100.7351,74.1641,115.2716,84.1173,89.4738
1991-11-01,75.0882,80.2014,79.0355,62.0823,57.7778,48.9227,52.3777,57.2675,71.5615,69.9802,68.6165,90.3746,67.122,73.8601,98.366,63.1598,63.5002,73.3427,60.4402,56.179,61.8575,88.7832,85.008,88.9495,82.9524,78.2402,66.1818,93.3058,117.0084,117.9977,107.5985,59.7781,57.8944,70.7776,94.3252,81.8673,98.7198,116.1578,65.5558,65.8352,75.8622,62.104,66.5357,65.8086,56.5805,54.5606,81.3635,73.7474,71.4635,79.3299,72.123,65.6317,63.2376,62.1332,88.3126,69.8671,101.2019,101.9674,116.1922,98.511,90.3322,94.7333,86.7806,88.0413,76.0737,94.0921,84.3083,89.8154
1991-12-01,75.5757,80.1579,78.4522,62.7936,58.3179,49.4609,53.3495,58.3269,71.2564,69.9557,69.4617,92.6982,70.1124,74.7419,100.7773,63.5388,64.0621,73.6453,61.1396,56.2913,63.4039,88.5679,84.2573,87.6926,82.6933,78.3725,65.4538,92.1696,120.6357,121.6556,110.9341,59.6328,58.1839,68.6495,93.9437,82.3576,97.9257,114.8705,65.8459,66.16,76.2157,62.4145,66.5931,64.6991,56.9954,54.8147,83.7551,70.6025,67.2705,76.3743,71.2313,65.5445,63.2857,61.9202,88.5399,68.2601,109.0225,110.6535,120.2292,114.3984,95.1394,95.5352,76.6477,76.6371,72.2196,78.3571,84.4161,89.7562
1992-01-01,77.8752,84.0153,83.325,67.342,63.8885,57.383,59.1452,65.5011,71.7921,71.9719,72.6693,95.0859,76.3102,75.4857,102.3804,64.1741,66.3851,74.5877,64.1452,58.2789,66.7009,92.4153,86.8467,90.3954,85.3834,79.6517,66.1738,95.1497,134.0262,135.1593,123.2477,69.7294,68.657,77.445,94.8104,83.1561,98.9019,114.7568,66.2331,66.5528,77.2831,62.6642,66.9585,64.3302,57.3437,55.1789,83.9072,69.2479,65.6496,75.4758,70.0771,65.7029,63.2197,62.1231,89.0155,67.6458,127.8664,132.0389,150.0871,152.5398,87.9208,93.78,85.8893,87.1275,81.3885,89.5066,83.5278,89.0819
1992-02-01,79.5527,86.7076,86.2823,73.1215,70.1038,65.8425,64.142,72.7718,73.4756,76.532,76.1169,99.8849,94.9155,77.0742,103.8047,64.8801,71.2452,79.4819,69.2192,62.9148,70.1026,92.4714,88.1619,91.6716,86.852,80.5857,66.3723,95.8895,123.3041,124.3466,113.3879,71.0515,69.9615,78.9013,96.1546,83.4968,100.8706,115.1864,66.2648,66.5777,77.4317,62.6642,67.0394,66.0847,57.7653,55.6153,84.1471,71.6729,68.6513,77.707,71.332,65.9151,63.5861,62.2825,89.1188,74.2751,136.8862,142.3054,143.2779,190.8174,82.3723,92.6966,91.4126,93.2292,82.6937,98.373,84.4829,90.0173
1992-03-01,81.223,88.8568,88.3249,74.6367,71.2883,66.4265,67.2492,73.3172,75.1095,77.8176,78.2602,100.9392,102.2086,80.2393,102.5277,66.4372,73.9695,81.0897,72.0934,66.8014,73.4676,97.6158,93.1608,97.2859,91.4893,83.5318,69.1599,102.3126,129.4693,130.5639,119.0573,71.3008,70.2413,79.0217,102.6644,86.261,109.7636,117.4717,67.2512,67.4752,78.6286,63.4788,68.6991,73.5365,60.3912,58.296,86.0971,84.8395,83.4569,90.7224,80.6673,67.7791,65.0988,63.8415,93.3702,90.0957,119.7563,123.0892,97.9493,172.6557,88.6379,92.4801,91.7499,93.5167,81.8944,99.2996,85.2953,90.5292
1992-04-01,82.2681,89.8796,88.8565,76.1299,72.4837,67.5357,68.5776,73.867,77.3803,78.4149,80.136,100.4383,103.6876,82.351,100.8599,67.0351,77.2132,84.3083,75.748,69.2196,75.3777,97.4761,93.7427,97.6181,92.2678,85.6346,69.7132,104.119,120.4065,121.4245,110.7233,69.4957,67.4317,81.7111,105.7456,88.2109,113.6468,118.1357,68.1582,68.3097,79.3967,64.304,70.1594,78.5796,62.0046,59.9256,87.5106,95.2987,95.3481,100.8958,87.9452,69.1411,66.5147,65.2455,94.3638,96.6726,111.809,114.0022,97.4557,142.3126,95.9945,93.7687,90.7245,92.2687,78.5852,99.2848,86.1372,91.5366
1992-05-01,82.8218,89.4513,87.5593,76.6153,72.8712,67.5357,68.3204,74.975,78.3411,78.7396,81.0957,99.4632,105.9261,83.4917,98.4765,67.8395,78.6118,85.2951,77.1597,70.9758,77.4883,95.5239,93.3996,97.1445,91.8687,87.4643,70.48,103.4344,108.6066,109.5249,99.8724,69.1878,66.5551,83.9771,102.7263,88.7103,108.4523,117.9558,68.5668,68.5626,78.9391,64.6898,71.6877,80.6239,63.5947,61.5267,88.9639,97.747,97.8947,103.215,90.2425,70.3378,67.4032,66.6784,95.0847,100.5395,101.8913,102.7241,96.7969,111.49,97.1165,94.876,87.7109,88.8837,76.6031,95.1097,86.1104,91.5693
1992-06-01,83.4712,90.1271,87.7597,77.0994,73.3977,67.5357,69.2179,75.9118,79.0424,79.5436,82.259,98.7017,107.6673,84.4113,96.6238,67.636,79.4886,85.718,77.8167,73.4867,78.1857,94.9182,93.3848,97.1918,91.6539,90.7511,70.1276,103.9112,105.5657,106.4582,97.076,67.9175,64.7581,85.0498,101.2698,89.547,105.4547,119.8252,68.8257,68.6927,79.7129,64.6898,72.8702,81.4644,65.5168,63.3657,91.9053,98.1098,97.78,103.6932,91.5673,71.9955,68.6845,68.6709,95.9217,98.1266,97.34,97.6289,97.8477,93.5829,100.9476,94.7355,91.7053,93.3237,74.9794,103.0828,86.5595,92.3081
1992-07-01,84.9142,91.6027,89.295,77.8699,73.9219,67.6054,70.385,76.671,79.1747,80.1525,83.7184,99.2164,109.2929,85.8967,96.5783,68.2447,81.1229,87.1253,79.2736,76.4185,79.1239,98.3778,97.9606,102.3948,95.9599,94.0259,70.6887,104.7001,111.2662,112.2069,102.3181,67.5433,64.6286,83.5479,99.8442,90.3101,102.6386,120.5822,70.5778,70.4919,80.2188,66.6952,74.3671,81.1822,67.5469,65.4561,93.1939,96.5005,95.7511,102.1445,90.8813,72.4688,69.7159,68.8693,96.4317,93.7109,94.4367,94.2645,99.2986,86.3722,97.2736,95.5672,95.6041,97.6502,78.0272,108.115,87.0619,92.6981
1992-08-01,86.1851,93.7671,92.156,78.6886,74.7905,68.2051,70.779,78.1277,79.7244,80.8739,85.4305,99.0462,107.7706,86.4905,96.6159,69.2002,82.2035,89.2657,79.6888,77.615,80.7855,99.3498,99.0092,103.5117,97.062,94.3803,70.618,105.5076,114.4929,115.4609,105.2853,69.4356,66.3089,86.4811,98.6416,90.5043,100.5515,120.7684,72.7094,72.8164,80.8197,69.2963,75.2304,80.2544,68.3557,66.2223,94.5259,92.6632,90.9209,98.437,89.2432,73.0309,71.1192,69.0992,96.6318,93.2423,97.3076,97.2208,103.288,88.7283,99.8525,97.7395,114.9973,119.4386,80.1903,141.2522,87.1906,93.3213
1992-09-01,87.0761,94.8324,93.3296,79.7126,75.9895,69.415,71.1456,80.5105,80.9592,81.6648,86.3384,99.3933,108.7344,87.0083,96.7351,69.477,82.9755,90.9006,80.0733,78.0741,81.755,100.3219,98.9706,103.3835,97.122,94.329,70.5474,104.2329,122.6219,123.6586,112.7606,74.0306,71.3484,89.242,98.2475,90.9871,99.7574,119.2789,73.5128,73.6377,81.4767,70.1279,75.9441,79.175,68.7147,66.5908,94.7665,88.8418,86.2755,95.4293,86.5963,73.7256,72.2645,69.1337,99.5937,92.4032,103.9087,104.4395,108.425,94.6726,110.593,99.3302,117.3172,121.934,84.9468,142.3819,88.1893,94.7949
1992-10-01,88.1783,96.1825,94.8321,80.9692,77.605,71.2224,71.2212,83.4489,81.3751,82.5717,88.3726,98.7968,105.831,87.9931,96.461,69.477,83.9089,90.7666,81.8435,77.9746,82.8178,101.2327,100.3634,104.7791,98.6139,94.8482,71.2528,104.611,122.2541,123.2877,112.4223,74.5301,71.8478,89.762,98.0961,91.4664,99.2793,118.8092,73.7619,73.8756,81.466,70.4084,76.283,78.1722,70.1101,68.0865,94.9293,85.4445,81.923,92.2532,85.2177,74.5181,72.25,70.2315,100.7799,87.9678,108.6448,109.6594,110.9744,102.0821,115.8758,100.1414,123.2856,128.5644,91.5285,148.9638,88.8943,95.95
1992-11-01,88.5848,95.4348,93.5037,82.2279,79.2204,73.2538,72.0837,85.702,81.4411,83.8146,89.8353,98.2382,104.9743,88.7214,95.6996,69.9633,84.836,91.1968,83.1432,78.4692,83.8116,101.2236,101.2279,105.4435,99.7302,94.7735,72.2504,101.9659,117.6084,118.6027,108.1503,74.3267,71.4886,90.259,97.7827,91.4357,98.8612,117.8616,73.8986,74.0182,81.5983,70.5492,76.3841,76.5655,70.2969,68.3273,94.4507,80.6398,76.3502,87.7067,82.0039,74.6825,72.4226,70.2893,101.4668,86.9122,111.5503,112.7673,116.4603,105.8299,115.7792,101.4025,109.44,112.9134,99.3453,119.6211,89.6465,97.1187